SL-14 DEB, 45301

Orbit data source: Space-Track

SL-14 DEB, 45301 is space debris in LEO originally from a launch on Thu, 15 Aug 1991 UTC launched from the Plesetsk Missile And Space Complex (PKMTR). Debris objects in space refer to the collection of defunct objects orbiting the Earth. Examples of debris include non-operational satellites, rocket bodies, and fragments generated from explosions, collisions, or faulty payload assembly.

Loading next visibility...
Identifier
45301, 1991-056AP
Orbit
LEO
Last TLE update
10 hours ago
Origin
Manufacturer
Unknown
Mission
Spacecraft
Bus & Motor
Unknown
Mass
Unknown
Launch date (UTC)
1991-08-15 (34 years ago)
Launch vehicle
Unknown
Launch site
Plesetsk Missile And Space Complex (PKMTR)
Object type
Payload
Rocket body
Debris
Shape & HBR
Unknown
Radar Cross Section
Medium (>0.1 m² and <1 m²)

Expand to show TLE details & history

TLE from 10 hours ago
0 SL-14 DEB
1 45301U 91056AP  25186.33449543  .00010604  00000-0  13115-1 0  9994
2 45301  82.4879 287.8154 0165251 245.2481 113.1392 13.59339283265777
Epoch: 2025-07-05T08:01Z
TLE epoch observation values (Epoch: 2025-07-05T08:01:40.405Z)
Latitude
-0.00001°
Longitude
-116.17698°
Altitude
1,090.824 km
Speed
7.282 km/s
True Right ascension
19h 11m 15s
True Declination
0° 00' 00"
Sunlit
Object was in full shadow at epoch
Visualization orbit readout
Latitude
-77.28171°
Longitude
99.03555°
Altitude
947.485 km
Speed
7.436 km/s
Apparent Right ascension
16h 51m 30s
Apparent Declination
-69° 51' 07"
Sunlit
Object is in daylight
Visualization observer readout
Local Sidereal Time
06:03:52
Azimuth
168.154° S
Elevation
-58.597°
Doppler factor
1
Orbital elements
Apogee altitude
1,157.789 km
Perigee altitude
912.774 km
Semi-major axis
7,413.418 km
Eccentricity
0.01653
Inclination
82.4879°
RAAN
287.8154°
Arg. of periapsis
245.2481°
True anomaly
Unknown
Mean anomaly
113.1392°
Eccentric anomaly
Unknown
Mean motion
3.40029 °/min
Orbital period
105.87 mins
BSTAR
0.013115
Loading maneuver chart data...
Loading SW <> Apogee altitude chart data...
Loading historical data...
Loading historical data...
Loading historical data...
Loading historical data...
Loading historical data...
Loading historical data...
Loading historical data...

SL-14 DEB Visibility forecast

Observer location: undefined°, undefined°

Span
Click to sort rows by Start time (UTC) header in descending order
Start Az.
Max El. time (UTC)
Max El. Az.
Max El.
End time (UTC)
End Az.
12 mins2025-07-05 19:13:23.463Z342.741° N2025-07-05 19:19:23.463Z284.098° WNW38.318°2025-07-05 19:25:23.463Z196.192° SSW
12 mins2025-07-06 07:06:23.463Z167.103° S2025-07-06 07:11:23.463Z100.296° ESE41.28°2025-07-06 07:18:23.463Z14.969° NNE
10 mins2025-07-06 08:54:23.463Z245.79° WSW2025-07-06 08:58:23.463Z285.111° WNW22.046°2025-07-06 09:04:23.463Z342.334° N
|